Location: ??
(35.5052°N, 139.7262°E)
Time: 02:00:10
(UTC+00:00)

Meteor 2-11 Rocket - Visible Passes

Search period start: 23 October 2021 00:00
Search period end: 02 November 2021 00:00
Orbit: 940 x 956 km, 82.5° (Epoch: 22 October)

Date Brightness Start Highest point End Pass type
(mag) Time Alt. Az. Time Alt. Az. Time Alt. Az.
23 Oct 5.3 08:53:56 10° SE 08:58:44 24° E 09:03:33 10° NE visible
23 Oct 5.5 10:37:29 10° SSW 10:43:14 41° WNW 10:49:02 10° N visible
23 Oct 7.1 19:49:37 10° NNE 19:53:30 17° ENE 19:57:21 10° ESE visible
24 Oct 4.8 09:10:01 10° SSE 09:15:41 40° E 09:21:20 10° NNE visible
24 Oct 6.3 10:55:35 10° SW 11:00:35 26° WNW 11:05:37 10° NNW visible
24 Oct 6.6 20:05:47 10° NNE 20:10:56 28° ENE 20:16:02 10° SE visible
25 Oct 4.3 09:26:39 10° S 09:32:42 65° E 09:38:47 10° NNE visible
25 Oct 7.0 11:14:27 10° WSW 11:18:02 16° WNW 11:21:39 10° NW visible
25 Oct 5.7 20:22:26 10° N 20:28:16 45° E 20:34:02 10° SSE visible
26 Oct 4.5 09:43:41 10° S 09:49:50 78° W 09:56:00 10° N visible
27 Oct 5.6 08:18:17 10° SE 08:22:41 21° E 08:27:05 10° NE visible
27 Oct 5.3 10:01:09 10° SSW 10:07:03 48° W 10:12:59 10° N visible
27 Oct 7.2 19:14:01 10° NE 19:17:14 15° ENE 19:20:26 10° ESE visible
28 Oct 5.0 08:34:09 10° SSE 08:39:36 34° E 08:45:02 10° NNE visible
28 Oct 6.2 10:19:04 10° SW 10:24:22 30° WNW 10:29:42 10° NNW visible
28 Oct 6.8 19:29:54 10° NNE 19:34:43 24° ENE 19:39:28 10° SE visible
29 Oct 4.5 08:50:38 10° SSE 08:56:36 56° E 09:02:35 10° NNE visible
29 Oct 6.9 10:37:38 10° WSW 10:41:47 19° WNW 10:45:57 10° NNW visible
29 Oct 5.9 19:46:26 10° N 19:52:04 38° ENE 19:57:40 10° SE visible
30 Oct 4.4 09:07:32 10° S 09:13:42 90° E 09:19:51 10° N visible
30 Oct 7.4 10:57:50 10° W 10:59:20 11° WNW 11:00:48 10° NW visible
30 Oct 5.0 20:03:17 10° N 20:09:19 63° E 20:15:19 10° SSE visible
31 Oct 5.1 09:24:52 10° SSW 09:30:53 56° W 09:36:55 10° N visible
31 Oct 7.3 18:38:38 10° NE 18:40:57 12° ENE 18:43:15 10° E visible
31 Oct 4.4 20:20:23 10° N 20:26:29 81° W 20:32:32 10° S visible
01 Nov 6.0 09:42:38 10° SW 09:48:10 35° WNW 09:53:43 10° NNW visible
01 Nov 6.9 18:54:03 10° NNE 18:58:28 20° ENE 19:02:50 10° ESE visible
